Year,Month,Day,Hour,Minute,Value (Times are PST for windgust in km/hr)
2010,07,13,00,00,17.70
2010,07,13,00,01,11.30
2010,07,13,00,02,19.30
2010,07,13,00,03,20.90
2010,07,13,00,04,19.30
2010,07,13,00,05,16.10
2010,07,13,00,06,19.30
2010,07,13,00,07,17.70
2010,07,13,00,08,14.50
2010,07,13,00,09,19.30
2010,07,13,00,10,20.90
2010,07,13,00,11,14.50
2010,07,13,00,12,19.30
2010,07,13,00,13,27.40
2010,07,13,00,14,24.20
2010,07,13,00,15,14.50
2010,07,13,00,16,9.60
2010,07,13,00,17,14.50
2010,07,13,00,18,11.30
2010,07,13,00,19,11.30
2010,07,13,00,20,8.10
2010,07,13,00,21,11.30
2010,07,13,00,22,9.60
2010,07,13,00,23,6.40
2010,07,13,00,24,8.10
2010,07,13,00,25,9.60
2010,07,13,00,26,11.30
2010,07,13,00,27,6.40
2010,07,13,00,28,9.60
2010,07,13,00,29,17.70
2010,07,13,00,30,14.50
2010,07,13,00,31,11.30
2010,07,13,00,32,8.10
2010,07,13,00,33,19.30
2010,07,13,00,34,25.70
2010,07,13,00,35,20.90
2010,07,13,00,36,14.50
2010,07,13,00,37,11.30
2010,07,13,00,38,9.60
2010,07,13,00,39,17.70
2010,07,13,00,40,20.90
2010,07,13,00,41,9.60
2010,07,13,00,42,14.50
2010,07,13,00,43,11.30
2010,07,13,00,44,19.30
2010,07,13,00,45,11.30
2010,07,13,00,46,16.10
2010,07,13,00,47,19.30
2010,07,13,00,48,20.90
2010,07,13,00,49,16.10
2010,07,13,00,50,14.50
2010,07,13,00,51,14.50
2010,07,13,00,52,9.60
2010,07,13,00,53,17.70
2010,07,13,00,54,17.70
2010,07,13,00,55,17.70
2010,07,13,00,56,19.30
2010,07,13,00,57,17.70
2010,07,13,00,58,16.10
2010,07,13,00,59,22.50
2010,07,13,01,00,14.50
2010,07,13,01,01,17.70
2010,07,13,01,02,19.30
2010,07,13,01,03,11.30
2010,07,13,01,04,14.50
2010,07,13,01,05,25.70
2010,07,13,01,06,19.30
2010,07,13,01,07,25.70
2010,07,13,01,08,16.10
2010,07,13,01,09,20.90
2010,07,13,01,10,24.20
2010,07,13,01,11,19.30
2010,07,13,01,12,14.50
2010,07,13,01,13,22.50
2010,07,13,01,14,27.40
2010,07,13,01,15,20.90
2010,07,13,01,16,14.50
2010,07,13,01,17,22.50
2010,07,13,01,18,16.10
2010,07,13,01,19,8.10
2010,07,13,01,20,19.30
2010,07,13,01,21,19.30
2010,07,13,01,22,22.50
2010,07,13,01,23,17.70
2010,07,13,01,24,20.90
2010,07,13,01,25,24.20
2010,07,13,01,26,17.70
2010,07,13,01,27,20.90
2010,07,13,01,28,17.70
2010,07,13,01,29,9.60
2010,07,13,01,30,16.10
2010,07,13,01,31,11.30
2010,07,13,01,32,22.50
2010,07,13,01,33,24.20
2010,07,13,01,34,20.90
2010,07,13,01,35,20.90
2010,07,13,01,36,8.10
2010,07,13,01,37,16.10
2010,07,13,01,38,16.10
2010,07,13,01,39,19.30
2010,07,13,01,40,16.10
2010,07,13,01,41,11.30
2010,07,13,01,42,24.20
2010,07,13,01,43,30.60
2010,07,13,01,44,35.40
2010,07,13,01,45,37.00
2010,07,13,01,46,19.30
2010,07,13,01,47,20.90
2010,07,13,01,48,9.60
2010,07,13,01,49,12.90
2010,07,13,01,50,20.90
2010,07,13,01,51,11.30
2010,07,13,01,52,16.10
2010,07,13,01,53,19.30
2010,07,13,01,54,24.20
2010,07,13,01,55,24.20
2010,07,13,01,56,20.90
2010,07,13,01,57,17.70
2010,07,13,01,58,19.30
2010,07,13,01,59,17.70
2010,07,13,02,00,20.90
2010,07,13,02,01,9.60
2010,07,13,02,02,14.50
2010,07,13,02,03,22.50
2010,07,13,02,04,19.30
2010,07,13,02,05,12.90
2010,07,13,02,06,16.10
2010,07,13,02,07,16.10
2010,07,13,02,08,8.10
2010,07,13,02,09,17.70
2010,07,13,02,10,16.10
2010,07,13,02,11,11.30
2010,07,13,02,12,17.70
2010,07,13,02,13,24.20
2010,07,13,02,14,22.50
2010,07,13,02,15,24.20
2010,07,13,02,16,17.70
2010,07,13,02,17,11.30
2010,07,13,02,18,17.70
2010,07,13,02,19,27.40
2010,07,13,02,20,22.50
2010,07,13,02,21,16.10
2010,07,13,02,22,19.30
2010,07,13,02,23,17.70
2010,07,13,02,24,24.20
2010,07,13,02,25,19.30
2010,07,13,02,26,25.70
2010,07,13,02,27,27.40
2010,07,13,02,28,22.50
2010,07,13,02,29,16.10
2010,07,13,02,30,30.60
2010,07,13,02,31,22.50
2010,07,13,02,32,20.90
2010,07,13,02,33,14.50
2010,07,13,02,34,32.20
2010,07,13,02,35,25.70
2010,07,13,02,36,35.40
2010,07,13,02,37,30.60
2010,07,13,02,38,24.20
2010,07,13,02,39,24.20
2010,07,13,02,40,27.40
2010,07,13,02,41,24.20
2010,07,13,02,42,22.50
2010,07,13,02,43,24.20
2010,07,13,02,44,17.70
2010,07,13,02,45,27.40
2010,07,13,02,46,19.30
2010,07,13,02,47,20.90
2010,07,13,02,48,11.30
2010,07,13,02,49,25.70
2010,07,13,02,50,22.50
2010,07,13,02,51,19.30
2010,07,13,02,52,16.10
2010,07,13,02,53,20.90
2010,07,13,02,54,9.60
2010,07,13,02,55,8.10
2010,07,13,02,56,17.70
2010,07,13,02,57,12.90
2010,07,13,02,58,17.70
2010,07,13,02,59,17.70
2010,07,13,03,00,16.10
2010,07,13,03,01,19.30
2010,07,13,03,02,14.50
2010,07,13,03,03,9.60
2010,07,13,03,06,16.10
2010,07,13,03,07,22.50
2010,07,13,03,08,11.30
2010,07,13,03,09,8.10
2010,07,13,03,10,6.40
2010,07,13,03,11,11.30
2010,07,13,03,12,11.30
2010,07,13,03,13,6.40
2010,07,13,03,14,6.40
2010,07,13,03,15,11.30
2010,07,13,03,16,12.90
2010,07,13,03,17,6.40
2010,07,13,03,18,6.40
2010,07,13,03,19,6.40
2010,07,13,03,20,9.60
2010,07,13,03,21,6.40
2010,07,13,03,22,11.30
2010,07,13,03,23,11.30
2010,07,13,03,24,19.30
2010,07,13,03,25,16.10
2010,07,13,03,26,11.30
2010,07,13,03,27,20.90
2010,07,13,03,28,11.30
2010,07,13,03,29,25.70
2010,07,13,03,30,16.10
2010,07,13,03,31,17.70
2010,07,13,03,32,16.10
2010,07,13,03,33,22.50
2010,07,13,03,34,17.70
2010,07,13,03,35,19.30
2010,07,13,03,36,20.90
2010,07,13,03,37,17.70
2010,07,13,03,38,11.30
2010,07,13,03,39,16.10
2010,07,13,03,40,19.30
2010,07,13,03,41,19.30
2010,07,13,03,42,12.90
2010,07,13,03,43,22.50
2010,07,13,03,44,17.70
2010,07,13,03,45,8.10
2010,07,13,03,46,17.70
2010,07,13,03,47,16.10
2010,07,13,03,48,16.10
2010,07,13,03,49,14.50
2010,07,13,03,50,12.90
2010,07,13,03,51,14.50
2010,07,13,03,52,17.70
2010,07,13,03,53,17.70
2010,07,13,03,54,16.10
2010,07,13,03,55,17.70
2010,07,13,03,56,19.30
2010,07,13,03,57,14.50
2010,07,13,03,58,11.30
2010,07,13,03,59,16.10
2010,07,13,04,00,11.30
2010,07,13,04,01,20.90
2010,07,13,04,02,19.30
2010,07,13,04,03,14.50
2010,07,13,04,04,16.10
2010,07,13,04,05,16.10
2010,07,13,04,06,12.90
2010,07,13,04,07,19.30
2010,07,13,04,08,11.30
2010,07,13,04,09,14.50
2010,07,13,04,10,14.50
2010,07,13,04,11,14.50
2010,07,13,04,12,9.60
2010,07,13,04,13,19.30
2010,07,13,04,14,20.90
2010,07,13,04,15,17.70
2010,07,13,04,16,19.30
2010,07,13,04,17,19.30
2010,07,13,04,18,9.60
2010,07,13,04,19,9.60
2010,07,13,04,20,16.10
2010,07,13,04,21,17.70
2010,07,13,04,22,8.10
2010,07,13,04,23,16.10
2010,07,13,04,24,11.30
2010,07,13,04,25,16.10
2010,07,13,04,26,24.20
2010,07,13,04,27,17.70
2010,07,13,04,28,9.60
2010,07,13,04,29,9.60
2010,07,13,04,30,12.90
2010,07,13,04,31,17.70
2010,07,13,04,32,14.50
2010,07,13,04,33,11.30
2010,07,13,04,34,9.60
2010,07,13,04,35,16.10
2010,07,13,04,36,24.20
2010,07,13,04,37,20.90
2010,07,13,04,38,17.70
2010,07,13,04,39,19.30
2010,07,13,04,40,17.70
2010,07,13,04,41,14.50
2010,07,13,04,42,14.50
2010,07,13,04,43,9.60
2010,07,13,04,44,9.60
2010,07,13,04,45,4.80
2010,07,13,04,46,12.90
2010,07,13,04,47,14.50
2010,07,13,04,48,16.10
2010,07,13,04,49,11.30
2010,07,13,04,50,8.10
2010,07,13,04,51,11.30
2010,07,13,04,52,11.30
2010,07,13,04,53,9.60
2010,07,13,04,54,11.30
2010,07,13,04,55,8.10
2010,07,13,04,56,11.30
2010,07,13,04,57,9.60
2010,07,13,04,58,12.90
2010,07,13,04,59,11.30
2010,07,13,05,00,8.10
2010,07,13,05,01,4.80
2010,07,13,05,02,3.20
2010,07,13,05,03,11.30
2010,07,13,05,04,11.30
2010,07,13,05,05,16.10
2010,07,13,05,06,11.30
2010,07,13,05,07,14.50
2010,07,13,05,08,14.50
2010,07,13,05,09,6.40
2010,07,13,05,10,8.10
2010,07,13,05,11,4.80
2010,07,13,05,12,8.10
2010,07,13,05,13,3.20
2010,07,13,05,14,8.10
2010,07,13,05,15,4.80
2010,07,13,05,16,8.10
2010,07,13,05,17,17.70
2010,07,13,05,18,11.30
2010,07,13,05,19,12.90
2010,07,13,05,20,14.50
2010,07,13,05,21,9.60
2010,07,13,05,22,14.50
2010,07,13,05,23,16.10
2010,07,13,05,24,11.30
2010,07,13,05,25,8.10
2010,07,13,05,26,9.60
2010,07,13,05,27,9.60
2010,07,13,05,28,9.60
2010,07,13,05,29,6.40
2010,07,13,05,30,4.80
2010,07,13,05,31,8.10
2010,07,13,05,32,11.30
2010,07,13,05,33,11.30
2010,07,13,05,34,9.60
2010,07,13,05,35,9.60
2010,07,13,05,36,9.60
2010,07,13,05,37,14.50
2010,07,13,05,38,11.30
2010,07,13,05,39,8.10
2010,07,13,05,40,6.40
2010,07,13,05,41,3.20
2010,07,13,05,42,1.60
2010,07,13,05,43,4.80
2010,07,13,05,44,6.40
2010,07,13,05,45,9.60
2010,07,13,05,46,8.10
2010,07,13,05,47,6.40
2010,07,13,05,48,4.80
2010,07,13,05,49,12.90
2010,07,13,05,50,17.70
2010,07,13,05,51,11.30
2010,07,13,05,52,16.10
2010,07,13,05,53,14.50
2010,07,13,05,54,14.50
2010,07,13,05,55,14.50
2010,07,13,05,56,9.60
2010,07,13,05,57,8.10
2010,07,13,05,58,4.80
2010,07,13,05,59,6.40
2010,07,13,06,00,3.20
2010,07,13,06,01,3.20
2010,07,13,06,02,6.40
2010,07,13,06,03,4.80
2010,07,13,06,04,6.40
2010,07,13,06,05,8.10
2010,07,13,06,06,6.40
2010,07,13,06,07,9.60
2010,07,13,06,08,11.30
2010,07,13,06,09,6.40
2010,07,13,06,10,9.60
2010,07,13,06,11,9.60
2010,07,13,06,12,3.20
2010,07,13,06,13,11.30
2010,07,13,06,14,9.60
2010,07,13,06,15,8.10
2010,07,13,06,16,4.80
2010,07,13,06,17,3.20
2010,07,13,06,18,4.80
2010,07,13,06,19,1.60
2010,07,13,06,20,6.40
2010,07,13,06,21,6.40
2010,07,13,06,22,3.20
2010,07,13,06,23,12.90
2010,07,13,06,24,12.90
2010,07,13,06,25,11.30
2010,07,13,06,26,14.50
2010,07,13,06,27,14.50
2010,07,13,06,28,14.50
2010,07,13,06,29,11.30
2010,07,13,06,30,19.30
2010,07,13,06,31,16.10
2010,07,13,06,32,9.60
2010,07,13,06,33,11.30
2010,07,13,06,34,9.60
2010,07,13,06,35,8.10
2010,07,13,06,36,16.10
2010,07,13,06,37,12.90
2010,07,13,06,38,14.50
2010,07,13,06,39,17.70
2010,07,13,06,40,16.10
2010,07,13,06,41,17.70
2010,07,13,06,42,9.60
2010,07,13,06,43,14.50
2010,07,13,06,44,16.10
2010,07,13,06,45,17.70
2010,07,13,06,46,16.10
2010,07,13,06,47,17.70
2010,07,13,06,48,14.50
2010,07,13,06,49,9.60
2010,07,13,06,50,12.90
2010,07,13,06,51,14.50
2010,07,13,06,52,19.30
2010,07,13,06,53,11.30
2010,07,13,06,54,9.60
2010,07,13,06,55,9.60
2010,07,13,06,56,6.40
2010,07,13,06,57,14.50
2010,07,13,06,58,12.90
2010,07,13,06,59,8.10
2010,07,13,07,00,9.60
2010,07,13,07,01,14.50
2010,07,13,07,02,9.60
2010,07,13,07,03,11.30
2010,07,13,07,04,4.80
2010,07,13,07,05,9.60
2010,07,13,07,06,11.30
2010,07,13,07,07,14.50
2010,07,13,07,08,19.30
2010,07,13,07,09,19.30
2010,07,13,07,10,17.70
2010,07,13,07,11,9.60
2010,07,13,07,12,16.10
2010,07,13,07,13,12.90
2010,07,13,07,14,17.70
2010,07,13,07,15,19.30
2010,07,13,07,16,9.60
2010,07,13,07,17,9.60
2010,07,13,07,18,14.50
2010,07,13,07,19,19.30
2010,07,13,07,20,17.70
2010,07,13,07,21,9.60
2010,07,13,07,22,9.60
2010,07,13,07,23,14.50
2010,07,13,07,24,16.10
2010,07,13,07,25,16.10
2010,07,13,07,26,8.10
2010,07,13,07,27,19.30
2010,07,13,07,28,16.10
2010,07,13,07,29,17.70
2010,07,13,07,30,9.60
2010,07,13,07,31,3.20
2010,07,13,07,32,4.80
2010,07,13,07,33,14.50
2010,07,13,07,34,8.10
2010,07,13,07,35,8.10
2010,07,13,07,36,16.10
2010,07,13,07,37,9.60
2010,07,13,07,38,19.30
2010,07,13,07,39,20.90
2010,07,13,07,40,17.70
2010,07,13,07,41,22.50
2010,07,13,07,42,17.70
2010,07,13,07,43,20.90
2010,07,13,07,44,17.70
2010,07,13,07,45,12.90
2010,07,13,07,46,14.50
2010,07,13,07,47,14.50
2010,07,13,07,48,9.60
2010,07,13,07,49,14.50
2010,07,13,07,50,12.90
2010,07,13,07,51,20.90
2010,07,13,07,52,29.00
2010,07,13,07,53,20.90
2010,07,13,07,54,17.70
2010,07,13,07,55,25.70
2010,07,13,07,56,17.70
2010,07,13,07,57,22.50
2010,07,13,07,58,17.70
2010,07,13,07,59,20.90
2010,07,13,08,00,24.20
2010,07,13,08,01,20.90
2010,07,13,08,02,17.70
2010,07,13,08,03,25.70
2010,07,13,08,04,11.30
2010,07,13,08,05,17.70
2010,07,13,08,06,20.90
2010,07,13,08,07,20.90
2010,07,13,08,08,22.50
2010,07,13,08,09,14.50
2010,07,13,08,10,22.50
2010,07,13,08,11,16.10
2010,07,13,08,12,16.10
2010,07,13,08,13,11.30
2010,07,13,08,14,17.70
2010,07,13,08,15,16.10
2010,07,13,08,16,17.70
2010,07,13,08,17,17.70
2010,07,13,08,18,22.50
2010,07,13,08,19,25.70
2010,07,13,08,20,17.70
2010,07,13,08,21,16.10
2010,07,13,08,22,19.30
2010,07,13,08,23,16.10
2010,07,13,08,24,16.10
2010,07,13,08,25,16.10
2010,07,13,08,26,14.50
2010,07,13,08,27,11.30
2010,07,13,08,28,17.70
2010,07,13,08,29,9.60
2010,07,13,08,30,19.30
2010,07,13,08,31,16.10
2010,07,13,08,32,17.70
2010,07,13,08,33,16.10
2010,07,13,08,34,11.30
2010,07,13,08,35,19.30
2010,07,13,08,36,20.90
2010,07,13,08,37,19.30
2010,07,13,08,38,20.90
2010,07,13,08,39,16.10
2010,07,13,08,40,25.70
2010,07,13,08,41,20.90
2010,07,13,08,42,19.30
2010,07,13,08,43,20.90
2010,07,13,08,44,16.10
2010,07,13,08,45,24.20
2010,07,13,08,46,19.30
2010,07,13,08,47,22.50
2010,07,13,08,48,20.90
2010,07,13,08,49,20.90
2010,07,13,08,50,24.20
2010,07,13,08,51,20.90
2010,07,13,08,52,17.70
2010,07,13,08,53,9.60
2010,07,13,08,54,19.30
2010,07,13,08,55,19.30
2010,07,13,08,56,22.50
2010,07,13,08,57,22.50
2010,07,13,08,58,20.90
2010,07,13,08,59,19.30
2010,07,13,09,00,20.90
2010,07,13,09,01,17.70
2010,07,13,09,02,9.60
2010,07,13,09,03,16.10
2010,07,13,09,04,16.10
2010,07,13,09,05,16.10
2010,07,13,09,06,20.90
2010,07,13,09,07,17.70
2010,07,13,09,08,25.70
2010,07,13,09,09,25.70
2010,07,13,09,10,19.30
2010,07,13,09,11,22.50
2010,07,13,09,12,24.20
2010,07,13,09,13,25.70
2010,07,13,09,14,25.70
2010,07,13,09,15,29.00
2010,07,13,09,16,22.50
2010,07,13,09,17,17.70
2010,07,13,09,18,19.30
2010,07,13,09,19,14.50
2010,07,13,09,20,19.30
2010,07,13,09,21,24.20
2010,07,13,09,22,20.90
2010,07,13,09,23,22.50
2010,07,13,09,24,24.20
2010,07,13,09,25,22.50
2010,07,13,09,26,29.00
2010,07,13,09,27,25.70
2010,07,13,09,28,25.70
2010,07,13,09,29,16.10
2010,07,13,09,30,20.90
2010,07,13,09,31,17.70
2010,07,13,09,32,19.30
2010,07,13,09,33,12.90
2010,07,13,09,34,20.90
2010,07,13,09,35,19.30
2010,07,13,09,36,17.70
2010,07,13,09,37,22.50
2010,07,13,09,38,22.50
2010,07,13,09,39,19.30
2010,07,13,09,40,19.30
2010,07,13,09,41,20.90
2010,07,13,09,42,25.70
2010,07,13,09,43,24.20
2010,07,13,09,44,19.30
2010,07,13,09,45,27.40
2010,07,13,09,46,27.40
2010,07,13,09,47,24.20
2010,07,13,09,48,20.90
2010,07,13,09,49,25.70
2010,07,13,09,50,25.70
2010,07,13,09,51,29.00
2010,07,13,09,52,20.90
2010,07,13,09,53,22.50
2010,07,13,09,54,22.50
2010,07,13,09,55,32.20
2010,07,13,09,56,32.20
2010,07,13,09,57,25.70
2010,07,13,09,58,20.90
2010,07,13,09,59,22.50
2010,07,13,10,00,24.20
2010,07,13,10,01,20.90
2010,07,13,10,02,17.70
2010,07,13,10,03,16.10
2010,07,13,10,04,29.00
2010,07,13,10,05,25.70
2010,07,13,10,06,24.20
2010,07,13,10,07,22.50
2010,07,13,10,08,20.90
2010,07,13,10,09,24.20
2010,07,13,10,10,25.70
2010,07,13,10,11,22.50
2010,07,13,10,12,25.70
2010,07,13,10,13,20.90
2010,07,13,10,14,17.70
2010,07,13,10,15,22.50
2010,07,13,10,16,22.50
2010,07,13,10,17,22.50
2010,07,13,10,18,11.30
2010,07,13,10,19,25.70
2010,07,13,10,20,22.50
2010,07,13,10,21,14.50
2010,07,13,10,22,22.50
2010,07,13,10,23,22.50
2010,07,13,10,24,24.20
2010,07,13,10,25,25.70
2010,07,13,10,26,14.50
2010,07,13,10,27,25.70
2010,07,13,10,28,19.30
2010,07,13,10,29,19.30
2010,07,13,10,30,20.90
2010,07,13,10,31,20.90
2010,07,13,10,32,27.40
2010,07,13,10,33,32.20
2010,07,13,10,34,25.70
2010,07,13,10,35,19.30
2010,07,13,10,36,20.90
2010,07,13,10,37,22.50
2010,07,13,10,38,27.40
2010,07,13,10,39,14.50
2010,07,13,10,40,16.10
2010,07,13,10,41,16.10
2010,07,13,10,42,27.40
2010,07,13,10,43,22.50
2010,07,13,10,44,30.60
2010,07,13,10,45,22.50
2010,07,13,10,46,22.50
2010,07,13,10,47,20.90
2010,07,13,10,48,20.90
2010,07,13,10,49,22.50
2010,07,13,10,50,19.30
2010,07,13,10,51,22.50
2010,07,13,10,52,20.90
2010,07,13,10,53,27.40
2010,07,13,10,54,25.70
2010,07,13,10,55,25.70
2010,07,13,10,56,32.20
2010,07,13,10,57,24.20
2010,07,13,10,58,25.70
2010,07,13,10,59,24.20
2010,07,13,11,00,29.00
2010,07,13,11,01,25.70
2010,07,13,11,02,22.50
2010,07,13,11,03,17.70
2010,07,13,11,04,16.10
2010,07,13,11,05,25.70
2010,07,13,11,06,30.60
2010,07,13,11,07,20.90
2010,07,13,11,08,27.40
2010,07,13,11,09,30.60
2010,07,13,11,10,32.20
2010,07,13,11,11,27.40
2010,07,13,11,12,20.90
2010,07,13,11,13,20.90
2010,07,13,11,14,22.50
2010,07,13,11,15,22.50
2010,07,13,11,16,17.70
2010,07,13,11,17,24.20
2010,07,13,11,18,16.10
2010,07,13,11,19,16.10
2010,07,13,11,20,20.90
2010,07,13,11,21,22.50
2010,07,13,11,22,19.30
2010,07,13,11,23,20.90
2010,07,13,11,24,22.50
2010,07,13,11,25,24.20
2010,07,13,11,26,22.50
2010,07,13,11,27,17.70
2010,07,13,11,28,22.50
2010,07,13,11,29,17.70
2010,07,13,11,30,25.70
2010,07,13,11,31,22.50
2010,07,13,11,32,20.90
2010,07,13,11,33,17.70
2010,07,13,11,34,22.50
2010,07,13,11,35,24.20
2010,07,13,11,36,22.50
2010,07,13,11,37,24.20
2010,07,13,11,38,20.90
2010,07,13,11,39,27.40
2010,07,13,11,40,14.50
2010,07,13,11,41,14.50
2010,07,13,11,42,17.70
2010,07,13,11,43,20.90
2010,07,13,11,44,19.30
2010,07,13,11,45,19.30
2010,07,13,11,46,20.90
2010,07,13,11,47,22.50
2010,07,13,11,48,17.70
2010,07,13,11,49,22.50
2010,07,13,11,50,27.40
2010,07,13,11,51,25.70
2010,07,13,11,52,30.60
2010,07,13,11,53,27.40
2010,07,13,11,54,22.50
2010,07,13,11,55,19.30
2010,07,13,11,56,25.70
2010,07,13,11,57,32.20
2010,07,13,11,58,16.10
2010,07,13,11,59,19.30
2010,07,13,12,00,20.90
2010,07,13,12,01,29.00
2010,07,13,12,02,25.70
2010,07,13,12,03,19.30
2010,07,13,12,04,24.20
2010,07,13,12,05,19.30
2010,07,13,12,06,20.90
2010,07,13,12,07,14.50
2010,07,13,12,08,17.70
2010,07,13,12,09,22.50
2010,07,13,12,10,20.90
2010,07,13,12,11,17.70
2010,07,13,12,12,20.90
2010,07,13,12,13,22.50
2010,07,13,12,14,29.00
2010,07,13,12,15,22.50
2010,07,13,12,16,24.20
2010,07,13,12,17,22.50
2010,07,13,12,18,29.00
2010,07,13,12,19,27.40
2010,07,13,12,20,22.50
2010,07,13,12,21,20.90
2010,07,13,12,22,25.70
2010,07,13,12,23,29.00
2010,07,13,12,24,25.70
2010,07,13,12,25,17.70
2010,07,13,12,26,20.90
2010,07,13,12,27,19.30
2010,07,13,12,28,19.30
2010,07,13,12,29,17.70
2010,07,13,12,30,14.50
2010,07,13,12,31,20.90
2010,07,13,12,32,20.90
2010,07,13,12,33,29.00
2010,07,13,12,34,25.70
2010,07,13,12,35,17.70
2010,07,13,12,36,22.50
2010,07,13,12,37,24.20
2010,07,13,12,38,27.40
2010,07,13,12,39,22.50
2010,07,13,12,40,17.70
2010,07,13,12,41,17.70
2010,07,13,12,42,14.50
2010,07,13,12,43,16.10
2010,07,13,12,44,22.50
2010,07,13,12,45,22.50
2010,07,13,12,46,25.70
2010,07,13,12,47,25.70
2010,07,13,12,48,19.30
2010,07,13,12,49,20.90
2010,07,13,12,50,24.20
2010,07,13,12,51,17.70
2010,07,13,12,52,20.90
2010,07,13,12,53,24.20
2010,07,13,12,54,20.90
2010,07,13,12,55,22.50
2010,07,13,12,56,22.50
2010,07,13,12,57,19.30
2010,07,13,12,58,30.60
2010,07,13,12,59,20.90
2010,07,13,13,00,17.70
2010,07,13,13,01,20.90
2010,07,13,13,02,25.70
2010,07,13,13,03,20.90
2010,07,13,13,04,25.70
2010,07,13,13,05,14.50
2010,07,13,13,06,20.90
2010,07,13,13,07,24.20
2010,07,13,13,08,25.70
2010,07,13,13,09,19.30
2010,07,13,13,10,17.70
2010,07,13,13,11,24.20
2010,07,13,13,12,22.50
2010,07,13,13,13,19.30
2010,07,13,13,14,25.70
2010,07,13,13,15,24.20
2010,07,13,13,16,19.30
2010,07,13,13,17,22.50
2010,07,13,13,18,20.90
2010,07,13,13,19,19.30
2010,07,13,13,20,17.70
2010,07,13,13,21,22.50
2010,07,13,13,22,22.50
2010,07,13,13,23,20.90
2010,07,13,13,24,24.20
2010,07,13,13,25,20.90
2010,07,13,13,26,14.50
2010,07,13,13,27,14.50
2010,07,13,13,28,22.50
2010,07,13,13,29,20.90
2010,07,13,13,30,20.90
2010,07,13,13,31,22.50
2010,07,13,13,32,25.70
2010,07,13,13,33,24.20
2010,07,13,13,34,22.50
2010,07,13,13,35,19.30
2010,07,13,13,36,17.70
2010,07,13,13,37,22.50
2010,07,13,13,38,25.70
2010,07,13,13,39,24.20
2010,07,13,13,40,19.30
2010,07,13,13,41,17.70
2010,07,13,13,42,19.30
2010,07,13,13,43,20.90
2010,07,13,13,44,20.90
2010,07,13,13,45,27.40
2010,07,13,13,46,20.90
2010,07,13,13,47,24.20
2010,07,13,13,48,20.90
2010,07,13,13,49,20.90
2010,07,13,13,50,17.70
2010,07,13,13,51,19.30
2010,07,13,13,52,20.90
2010,07,13,13,53,24.20
2010,07,13,13,54,20.90
2010,07,13,13,55,24.20
2010,07,13,13,56,27.40
2010,07,13,13,57,22.50
2010,07,13,13,58,20.90
2010,07,13,13,59,22.50
2010,07,13,14,00,20.90
2010,07,13,14,01,24.20
2010,07,13,14,02,24.20
2010,07,13,14,03,20.90
2010,07,13,14,04,22.50
2010,07,13,14,05,20.90
2010,07,13,14,06,24.20
2010,07,13,14,07,27.40
2010,07,13,14,08,27.40
2010,07,13,14,09,27.40
2010,07,13,14,10,22.50
2010,07,13,14,11,27.40
2010,07,13,14,12,24.20
2010,07,13,14,13,27.40
2010,07,13,14,14,24.20
2010,07,13,14,15,27.40
2010,07,13,14,16,22.50
2010,07,13,14,17,25.70
2010,07,13,14,18,20.90
2010,07,13,14,19,11.30
2010,07,13,14,20,20.90
2010,07,13,14,21,25.70
2010,07,13,14,22,24.20
2010,07,13,14,23,20.90
2010,07,13,14,24,24.20
2010,07,13,14,25,20.90
2010,07,13,14,26,19.30
2010,07,13,14,27,17.70
2010,07,13,14,28,20.90
2010,07,13,14,29,16.10
2010,07,13,14,30,22.50
2010,07,13,14,31,20.90
2010,07,13,14,32,19.30
2010,07,13,14,33,20.90
2010,07,13,14,34,20.90
2010,07,13,14,35,16.10
2010,07,13,14,36,11.30
2010,07,13,14,37,16.10
2010,07,13,14,38,24.20
2010,07,13,14,39,20.90
2010,07,13,14,40,24.20
2010,07,13,14,41,17.70
2010,07,13,14,42,16.10
2010,07,13,14,43,16.10
2010,07,13,14,44,14.50
2010,07,13,14,45,17.70
2010,07,13,14,46,16.10
2010,07,13,14,47,22.50
2010,07,13,14,48,17.70
2010,07,13,14,49,19.30
2010,07,13,14,50,22.50
2010,07,13,14,51,22.50
2010,07,13,14,52,20.90
2010,07,13,14,53,22.50
2010,07,13,14,54,17.70
2010,07,13,14,55,11.30
2010,07,13,14,56,14.50
2010,07,13,14,57,14.50
2010,07,13,14,58,16.10
2010,07,13,14,59,14.50
2010,07,13,15,00,11.30
2010,07,13,15,01,16.10
2010,07,13,15,02,9.60
2010,07,13,15,03,16.10
2010,07,13,15,04,16.10
2010,07,13,15,05,14.50
2010,07,13,15,06,16.10
2010,07,13,15,07,9.60
2010,07,13,15,08,12.90
2010,07,13,15,09,16.10
2010,07,13,15,10,17.70
2010,07,13,15,11,19.30
2010,07,13,15,12,19.30
2010,07,13,15,13,22.50
2010,07,13,15,14,16.10
2010,07,13,15,15,20.90
2010,07,13,15,16,19.30
2010,07,13,15,17,20.90
2010,07,13,15,18,17.70
2010,07,13,15,19,20.90
2010,07,13,15,20,20.90
2010,07,13,15,21,20.90
2010,07,13,15,22,20.90
2010,07,13,15,23,17.70
2010,07,13,15,24,16.10
2010,07,13,15,25,9.60
2010,07,13,15,26,19.30
2010,07,13,15,27,20.90
2010,07,13,15,28,19.30
2010,07,13,15,29,17.70
2010,07,13,15,30,14.50
2010,07,13,15,31,17.70
2010,07,13,15,32,20.90
2010,07,13,15,33,19.30
2010,07,13,15,34,17.70
2010,07,13,15,35,17.70
2010,07,13,15,36,17.70
2010,07,13,15,37,19.30
2010,07,13,15,38,16.10
2010,07,13,15,39,16.10
2010,07,13,15,40,19.30
2010,07,13,15,41,16.10
2010,07,13,15,42,20.90
2010,07,13,15,43,17.70
2010,07,13,15,44,17.70
2010,07,13,15,45,11.30
2010,07,13,15,46,6.40
2010,07,13,15,47,12.90
2010,07,13,15,48,17.70
2010,07,13,15,49,16.10
2010,07,13,15,50,12.90
2010,07,13,15,51,14.50
2010,07,13,15,52,14.50
2010,07,13,15,53,14.50
2010,07,13,15,54,20.90
2010,07,13,15,55,24.20
2010,07,13,15,56,19.30
2010,07,13,15,57,20.90
2010,07,13,15,58,16.10
2010,07,13,15,59,8.10
2010,07,13,16,00,9.60
2010,07,13,16,01,11.30
2010,07,13,16,02,12.90
2010,07,13,16,03,14.50
2010,07,13,16,04,11.30
2010,07,13,16,05,12.90
2010,07,13,16,06,11.30
2010,07,13,16,07,14.50
2010,07,13,16,08,11.30
2010,07,13,16,09,19.30
2010,07,13,16,10,20.90
2010,07,13,16,11,16.10
2010,07,13,16,12,19.30
2010,07,13,16,13,24.20
2010,07,13,16,14,17.70
2010,07,13,16,15,11.30
2010,07,13,16,16,19.30
2010,07,13,16,17,22.50
2010,07,13,16,18,20.90
2010,07,13,16,19,16.10
2010,07,13,16,20,16.10
2010,07,13,16,21,12.90
2010,07,13,16,22,14.50
2010,07,13,16,23,16.10
2010,07,13,16,24,16.10
2010,07,13,16,25,16.10
2010,07,13,16,26,14.50
2010,07,13,16,27,17.70
2010,07,13,16,28,12.90
2010,07,13,16,29,17.70
2010,07,13,16,30,17.70
2010,07,13,16,31,12.90
2010,07,13,16,32,17.70
2010,07,13,16,33,17.70
2010,07,13,16,34,9.60
2010,07,13,16,35,14.50
2010,07,13,16,36,14.50
2010,07,13,16,37,16.10
2010,07,13,16,38,19.30
2010,07,13,16,39,22.50
2010,07,13,16,40,12.90
2010,07,13,16,41,14.50
2010,07,13,16,42,16.10
2010,07,13,16,43,17.70
2010,07,13,16,44,17.70
2010,07,13,16,45,17.70
2010,07,13,16,46,20.90
2010,07,13,16,47,17.70
2010,07,13,16,48,17.70
2010,07,13,16,49,14.50
2010,07,13,16,50,16.10
2010,07,13,16,51,16.10
2010,07,13,16,52,19.30
2010,07,13,16,53,14.50
2010,07,13,16,54,16.10
2010,07,13,16,55,17.70
2010,07,13,16,56,14.50
2010,07,13,16,57,19.30
2010,07,13,16,58,12.90
2010,07,13,16,59,11.30
2010,07,13,17,00,11.30
2010,07,13,17,01,16.10
2010,07,13,17,02,8.10
2010,07,13,17,03,17.70
2010,07,13,17,04,11.30
2010,07,13,17,05,16.10
2010,07,13,17,06,14.50
2010,07,13,17,07,9.60
2010,07,13,17,08,16.10
2010,07,13,17,09,9.60
2010,07,13,17,10,16.10
2010,07,13,17,11,8.10
2010,07,13,17,12,9.60
2010,07,13,17,13,11.30
2010,07,13,17,14,12.90
2010,07,13,17,15,11.30
2010,07,13,17,16,9.60
2010,07,13,17,17,8.10
2010,07,13,17,18,17.70
2010,07,13,17,19,11.30
2010,07,13,17,20,11.30
2010,07,13,17,21,11.30
2010,07,13,17,22,9.60
2010,07,13,17,23,6.40
2010,07,13,17,24,9.60
2010,07,13,17,25,8.10
2010,07,13,17,26,9.60
2010,07,13,17,27,11.30